Погода в Крынице-Морска

Польша     54°22′30″N   19°25′53″E
темп.,
°C
ветер,
м/с
пор.,
м/с
влажн.,
%
обл.,
%
осадки,
мм/ч
давл.,
гПа
погр.,
м
28 февраля, вс
вс2801:00+3з688052 0.0 1032131
04:00+3з7109085 0.0 1030217
07:00+3з7109353 0.0 1030256
10:00+3зсз9129380 0.0 1029327
13:00+3сз9139290 0.0 1030292
16:00+3сз9128910 0.0 1029202
19:00+4сз811875 0.0 1030163
22:00+4ссз66830 0.0 103161
1 марта, пн
пн101:00+4ссз56820 0.0 103346
04:00+4сз56850 0.0 103258
07:00+4зсз45840 0.0 103342
10:00+4зюз45830 0.0 103339
13:00+5юз45810 0.0 103329
16:00+6зюз66760 0.0 103138
19:00+5зюз78770 0.0 103085
22:00+4зюз710810 0.0 1030161
2 марта, вт
вт201:00+4з711860 0.0 1029188
04:00+4з711880 0.0 1028229
07:00+3зсз8139213 0.0 1028291
10:00+3зсз91294100 0.0 1029254
13:00+3сз7109391 0.0 1030159
16:00+3сз57910 0.0 103095
19:00+3ссз34880 0.0 103234
22:00+3ссв238635 0.0 103222
3 марта, ср
ср301:00+2ю128649 0.0 103222
04:00+2ююз338878 0.0 103129
07:00+2ююз449059 0.0 103095
10:00+2ююз469237 0.0 1029132
13:00+4юз348719 0.0 102734
16:00+5юз34790 0.0 102423
19:00+5зюз677523 0.0 102243
22:00+4зюз678028 0.0 102065
4 марта, чт
чт401:00+4зюз568414 0.0 101767
04:00+3зюз56860 0.0 101467
07:00+3з56890 0.0 101398
10:00+3зсз57930 0.0 1012172
13:00+3сз569419 0.0 1012204
16:00+1ссв91184100 0.1 1012529
19:00+1ссв81173100 0.1 1013769
22:00+1ссв81071100 0.1 1015927